Tracking 27401 objects as of 3-Jun-2023
HD Live streaming from Space Station
objects crossing your sky now

OSCAR 32

Track OSCAR 32 now!
10-day predictions
OSCAR 32 is classified as:


NORAD ID: 19071
Int'l Code: 1988-033B
Perigee: 1,021.6 km
Apogee: 1,303.2 km
Inclination: 90.3 °
Period: 108.5 minutes
Semi major axis: 7533 km
RCS: 1.686 m2 (large)
Launch date: April 26, 1988
Source: United States (US)
Launch site: AIR FORCE WESTERN TEST RANGE (AFWTR)
Your satellite tracking list
Your tracking list is empty




NASA's NSSDC Master Catalog

Two Line Element Set (TLE):
1 19071U 88033B   23153.80921322  .00000092  00000-0  17009-3 0  9992
2 19071  90.3189 347.9705 0186928 216.8415 154.2476 13.27753165700046
Source of the keplerian elements: AFSPC